sat.trackr.live / text

‹ back to catalog

TIANMU-1 08

NORAD 57400 · 2023-101B

PAYLOAD ACTIVE UNKNOWN

§ Identity

Operator
Country
PRC
Launch date
2023-07-20
Launch site
JSC
Launch vehicle
Mass (kg)
RCS (m²)

Purposes: earth_obs

External: N2YO · Heavens-Above · Gunter

§ Orbital elements

Epoch: 2026-09-19T22:42:36.965952Z

Period
94.07 min
Inclination
97.2494°
Eccentricity
0.0005131
Mean motion
15.30740499 rev/d
Perigee alt
470.1 km
Apogee alt
477.1 km
Semi-major
6,851.7 km
B*
1.3303e-4
RAAN
311.2088°
Arg perigee
129.3988°
Mean anomaly
230.7708°
Rev number
17,613

§ Raw data

TIANMU-1 081 57400U 23101B   26262.94626118  .00003878  00000+0  13303-3 0  99962 57400  97.2494 311.2088 0005131 129.3988 230.7708 15.30740499176133

JSON: /api/v1/satellites/57400 · /tle

For live sub-satellite position, see the globe view (requires WebGL).

§ Visibility from observer

Set your observer location to see the next 7 days of passes ≥ 10°. The values pass through the URL so the page stays shareable.

No JS? Fill the form by hand. The geolocation button needs JavaScript.